Location: Llanfihangel-Ystrad
(52.1833°N, 4.1667°W)
Time: 10:22:31
(UTC+00:00)

Cosmos 1869 - Pass Details

Date: 17 February 2020
Orbit: 524 x 559 km, 82.5° (Epoch: 29 March)

Event Time Altitude Azimuth Distance (km) Brightness Sun altitude
Rises 05:57:03 0° 191° (S) 2,714 6.8 -14.7°
Reaches altitude 10° 05:59:13 10° 192° (SSW) 1,820 5.9 -14.4°
Maximum altitude 06:03:14 82° 281° (WNW) 557 3.2 -13.8°
Drops below altitude 10° 06:07:14 10° 9° (N) 1,815 6.0 -13.2°
Sets 06:09:23 0° 11° (N) 2,706 7.0 -12.8°
